• In Uzbekistan
  • List of Countries
  • For 7 days
  • Water Temperature
  • Satellite Maps
  • Weather Map
  • Weather Widgets
  • user-avatar
    Login

    Hourly Weather Nuuk

    Today, 22 August, Tuesday

    Time Temperature Precipitation Wind Pressure Humidity
    00:00 +7°C° 2.3 mm 2 mps 746 mmHg 96%
    01:00 +7°C° 2.4 mm 2 mps 746 mmHg 96%
    02:00 +7°C° 2.4 mm 2 mps 746 mmHg 96%
    03:00 +7°C° 0 mm 3 mps 746 mmHg 96%
    04:00 +7°C° 1.3 mm 3 mps 747 mmHg 96%
    05:00 +7°C° 1.3 mm 3 mps 747 mmHg 96%
    06:00 +7°C° 1.3 mm 3 mps 747 mmHg 96%
    07:00 +7°C° 0.8 mm 3 mps 748 mmHg 95%
    08:00 +7°C° 0.8 mm 3 mps 749 mmHg 94%
    09:00 +5°C° 0 mm 4 mps 749 mmHg 93%
    10:00 +5°C° 0.1 mm 4 mps 750 mmHg 90%
    11:00 +6°C° 0.1 mm 4 mps 751 mmHg 87%
    12:00 +6°C° 0.1 mm 4 mps 752 mmHg 83%
    13:00 +6°C° 0 mm 4 mps 752 mmHg 81%
    14:00 +7°C° 0 mm 4 mps 753 mmHg 78%
    15:00 +7°C° 0 mm 4 mps 754 mmHg 76%
    16:00 +7°C° 0 mm 4 mps 754 mmHg 76%
    17:00 +7°C° 0 mm 4 mps 754 mmHg 76%
    18:00 +8°C° 0 mm 3 mps 755 mmHg 75%
    19:00 +7°C° 0 mm 3 mps 755 mmHg 78%
    20:00 +5°C° 0 mm 3 mps 755 mmHg 82%
    21:00 +5°C° 0 mm 3 mps 756 mmHg 85%
    22:00 +4°C° 0 mm 3 mps 756 mmHg 85%
    23:00 +5°C° 0 mm 2 mps 756 mmHg 86%

    Tomorrow, 23 August, Wednesday

    Time Temperature Precipitation Wind Pressure Humidity
    00:00 +5°C° 0 mm 2 mps 756 mmHg 86%
    01:00 +4°C° 0 mm 2 mps 756 mmHg 86%
    02:00 +5°C° 0 mm 1 mps 756 mmHg 87%
    03:00 +5°C° 0 mm 1 mps 756 mmHg 87%
    04:00 +5°C° 0 mm 1 mps 756 mmHg 87%
    05:00 +6°C° 0 mm 1 mps 757 mmHg 87%
    06:00 +6°C° 0 mm 1 mps 757 mmHg 86%
    07:00 +7°C° 0 mm 1 mps 757 mmHg 81%
    08:00 +8°C° 0 mm 1 mps 757 mmHg 75%
    09:00 +9°C° 0 mm 1 mps 758 mmHg 70%
    10:00 +10°C° 0 mm 1 mps 758 mmHg 65%
    11:00 +11°C° 0 mm 1 mps 758 mmHg 59%
    12:00 +12°C° 0 mm 2 mps 758 mmHg 54%
    13:00 +12°C° 0 mm 2 mps 758 mmHg 53%
    14:00 +12°C° 0 mm 2 mps 758 mmHg 51%
    15:00 +12°C° 0 mm 2 mps 758 mmHg 50%
    16:00 +12°C° 0 mm 2 mps 758 mmHg 51%
    17:00 +12°C° 0 mm 2 mps 758 mmHg 53%
    18:00 +12°C° 0 mm 1 mps 758 mmHg 54%
    19:00 +11°C° 0 mm 1 mps 758 mmHg 59%
    20:00 +10°C° 0 mm 1 mps 758 mmHg 64%
    21:00 +9°C° 0 mm 1 mps 758 mmHg 69%
    22:00 +9°C° 0 mm 1 mps 758 mmHg 70%
    23:00 +8°C° 0 mm 1 mps 758 mmHg 72%

    Day after tomorrow, 24 August, Thursday

    Time Temperature Precipitation Wind Pressure Humidity
    00:00 +8°C° 0 mm 1 mps 758 mmHg 73%
    01:00 +8°C° 0 mm 1 mps 758 mmHg 74%
    02:00 +8°C° 0 mm 1 mps 758 mmHg 75%
    03:00 +6°C° 0 mm 0 mps 758 mmHg 75%
    04:00 +7°C° 0 mm 0 mps 758 mmHg 75%
    05:00 +7°C° 0 mm 0 mps 758 mmHg 75%
    06:00 +7°C° 0 mm 0 mps 758 mmHg 75%
    07:00 +9°C° 0 mm 1 mps 758 mmHg 71%
    08:00 +10°C° 0 mm 1 mps 757 mmHg 66%
    09:00 +12°C° 0 mm 1 mps 757 mmHg 62%
    10:00 +12°C° 0 mm 1 mps 757 mmHg 61%
    11:00 +13°C° 0 mm 1 mps 757 mmHg 60%
    12:00 +13°C° 0 mm 2 mps 757 mmHg 59%
    13:00 +13°C° 0 mm 2 mps 757 mmHg 58%
    14:00 +14°C° 0 mm 2 mps 756 mmHg 58%
    15:00 +14°C° 0 mm 2 mps 756 mmHg 57%
    16:00 +12°C° 0 mm 3 mps 756 mmHg 58%
    17:00 +12°C° 0 mm 3 mps 756 mmHg 59%
    18:00 +12°C° 0 mm 3 mps 756 mmHg 60%
    19:00 +11°C° 0 mm 3 mps 756 mmHg 63%
    20:00 +10°C° 0 mm 3 mps 756 mmHg 66%
    21:00 +9°C° 0 mm 3 mps 756 mmHg 69%
    22:00 +9°C° 0.1 mm 3 mps 755 mmHg 70%
    23:00 +9°C° 0.1 mm 3 mps 755 mmHg 71%

    25 August, Friday

    Time Temperature Precipitation Wind Pressure Humidity
    00:00 +9°C° 0.1 mm 3 mps 755 mmHg 72%
    01:00 +9°C° 0.1 mm 3 mps 754 mmHg 74%
    02:00 +9°C° 0.1 mm 3 mps 754 mmHg 75%
    03:00 +9°C° 0.1 mm 3 mps 754 mmHg 76%
    04:00 +9°C° 0.1 mm 3 mps 754 mmHg 77%
    05:00 +9°C° 0.1 mm 3 mps 753 mmHg 78%
    06:00 +9°C° 0.1 mm 3 mps 753 mmHg 79%
    07:00 +9°C° 0 mm 3 mps 753 mmHg 76%
    08:00 +10°C° 0 mm 3 mps 752 mmHg 73%
    09:00 +11°C° 0 mm 3 mps 752 mmHg 70%
    10:00 +11°C° 0 mm 3 mps 752 mmHg 66%
    11:00 +12°C° 0 mm 4 mps 751 mmHg 63%
    12:00 +13°C° 0 mm 4 mps 751 mmHg 59%
    13:00 +13°C° 0 mm 4 mps 751 mmHg 57%
    14:00 +13°C° 0 mm 5 mps 751 mmHg 55%
    15:00 +13°C° 0 mm 5 mps 750 mmHg 52%
    16:00 +13°C° 0 mm 6 mps 750 mmHg 52%
    17:00 +13°C° 0 mm 6 mps 750 mmHg 52%
    18:00 +13°C° 0 mm 6 mps 750 mmHg 52%
    19:00 +11°C° 0 mm 6 mps 751 mmHg 54%
    20:00 +11°C° 0 mm 6 mps 751 mmHg 57%
    21:00 +10°C° 0 mm 6 mps 751 mmHg 59%
    22:00 +9°C° 0 mm 6 mps 751 mmHg 60%
    23:00 +9°C° 0 mm 6 mps 751 mmHg 61%

    26 August, Saturday

    Time Temperature Precipitation Wind Pressure Humidity
    00:00 +8°C° 0 mm 6 mps 751 mmHg 62%
    01:00 +7°C° 0 mm 6 mps 751 mmHg 63%
    02:00 +7°C° 0 mm 6 mps 751 mmHg 64%
    03:00 +5°C° 0 mm 6 mps 751 mmHg 65%
    04:00 +5°C° 0 mm 6 mps 751 mmHg 65%
    05:00 +5°C° 0 mm 6 mps 752 mmHg 65%
    06:00 +5°C° 0 mm 6 mps 752 mmHg 65%
    07:00 +7°C° 0 mm 6 mps 752 mmHg 61%
    08:00 +7°C° 0 mm 6 mps 752 mmHg 57%
    09:00 +8°C° 0 mm 6 mps 752 mmHg 53%
    10:00 +9°C° 0 mm 7 mps 752 mmHg 50%
    11:00 +10°C° 0 mm 7 mps 751 mmHg 48%
    12:00 +10°C° 0 mm 7 mps 751 mmHg 46%
    13:00 +10°C° 0 mm 7 mps 751 mmHg 45%
    14:00 +11°C° 0 mm 7 mps 751 mmHg 44%
    15:00 +11°C° 0 mm 7 mps 751 mmHg 43%
    16:00 +11°C° 0 mm 7 mps 751 mmHg 44%
    17:00 +10°C° 0 mm 7 mps 751 mmHg 44%
    18:00 +10°C° 0 mm 7 mps 752 mmHg 45%
    19:00 +9°C° 0 mm 6 mps 752 mmHg 49%
    20:00 +8°C° 0 mm 6 mps 752 mmHg 54%
    21:00 +7°C° 0 mm 6 mps 752 mmHg 59%
    22:00 +6°C° 0 mm 5 mps 752 mmHg 59%
    23:00 +6°C° 0 mm 5 mps 752 mmHg 60%

    27 August, Sunday

    Time Temperature Precipitation Wind Pressure Humidity
    00:00 +5°C° 0 mm 4 mps 752 mmHg 60%
    01:00 +5°C° 0 mm 4 mps 752 mmHg 61%
    02:00 +4°C° 0 mm 4 mps 752 mmHg 62%
    03:00 +4°C° 0 mm 3 mps 751 mmHg 63%
    04:00 +4°C° 0 mm 3 mps 752 mmHg 63%
    05:00 +4°C° 0 mm 3 mps 752 mmHg 63%
    06:00 +4°C° 0 mm 3 mps 752 mmHg 63%
    07:00 +7°C° 0 mm 2 mps 752 mmHg 59%
    08:00 +8°C° 0 mm 2 mps 752 mmHg 55%
    09:00 +9°C° 0 mm 2 mps 752 mmHg 52%
    10:00 +9°C° 0 mm 2 mps 752 mmHg 50%
    11:00 +10°C° 0 mm 2 mps 752 mmHg 49%
    12:00 +11°C° 0 mm 3 mps 752 mmHg 47%
    13:00 +11°C° 0 mm 3 mps 752 mmHg 47%
    14:00 +11°C° 0 mm 3 mps 752 mmHg 46%
    15:00 +12°C° 0 mm 3 mps 752 mmHg 46%
    16:00 +11°C° 0 mm 3 mps 752 mmHg 47%
    17:00 +11°C° 0 mm 3 mps 753 mmHg 48%
    18:00 +11°C° 0 mm 3 mps 753 mmHg 49%
    19:00 +10°C° 0 mm 3 mps 753 mmHg 53%
    20:00 +9°C° 0 mm 2 mps 753 mmHg 57%
    21:00 +8°C° 0 mm 2 mps 754 mmHg 60%
    22:00 +8°C° 0 mm 2 mps 754 mmHg 62%
    23:00 +8°C° 0 mm 1 mps 754 mmHg 64%
    Show more